Location: Rounton
(54.4000°N, 1.3500°W)
Time: 14:00:36
(UTC+00:00)

Transit 4A - Pass Details

Date: 05 December 2021
Orbit: 864 x 981 km, 66.8° (Epoch: 20 January)

Event Time Altitude Azimuth Distance (km) Brightness Sun altitude
Rises 18:30:35 0° 184° (S) 3,459 11.0 -23.0°
Reaches altitude 10° 18:33:16 10° 175° (S) 2,538 10.2 -23.4°
Enters shadow 18:36:25 26° 148° (SSE) 1,677 9.0 -23.9°
Maximum altitude 18:38:24 33° 113° (ESE) 1,483 - -24.1°
Drops below altitude 10° 18:43:41 10° 53° (NE) 2,618 - -24.9°
Sets 18:46:29 0° 44° (NE) 3,585 - -25.3°
